GARAI-B

导读

GARAI‑B(NORAD编号68463)是一颗纳入北美防空司令部(NORAD)空间监视目录的人造地球卫星,其国际空间标识符对应近年发射任务。该卫星主要承担技术演示验证功能,目前运行在近地轨道,由相关航天机构负责运营管理。作为空间态势感知网络的监测目标,其轨道参数被公开跟踪,服务于卫星碰撞预警与空间环境研究,体现了全球对太空轨道资源监测与治理的持续关注,目前卫星状态稳定,在轨正常执行既定任务。

Basic Information
目录编号:
68463
目录名称:
GARAI-B
国际标识:
2026-067AZ
轨道中心:
EARTH
卫星名称:
GARAI-B
卫星全名:
GARAI-B
卫星状态:
在轨 (已飞行175 天)
发射日期:
2026-03-30 UTC
国别 :
瑞典 (SE)
星等 :
--
This satellite is enrolled in the Space Conjunction Data Service (SCDS) and the current flight risk assessment level is: No High Risk
Orbit Information
数据来源 国际轨道数据
星历时间: 2026-09-20T23:13:44+0800
22小时前
查看轨道信息
半长轴: 6900.647km
偏心率: 0.0005151
轨道倾角: 97.463°
近地点辐角 96.526°
升交点赤经 220.460°
平近点角 263.656°
近地点: 518.955km
远地点: 526.065km
周期: 95.081分钟
每日圈数: 15.144957
Detailed Information
使用方式:
暂无
2D Orbit Map
3D Orbit Map
Orbit Altitude Analysis Chart
Orbit Inclination Analysis Chart
Orbit Comprehensive Analysis Chart
View Comprehensive Chart
Conjunction Data List
Event ID Objects TCA Miss Dist (km) Collision Risk Probability Collision Risk Index (CRI) Action
CDM_260923-092206-846306-954421
GARAI-B (68463)
OBJECT G (69544)
2026-09-23T
09:22:45+0000
1.458 km
极远距离
6.604437E-6 低风险 0.51
CDM_260922-042904-995406-846324
IXPE (49954)
GARAI-B (68463)
2026-09-22T
04:29:23+0000
1.600 km
极远距离
4.583958E-6 低风险 0.48
CDM_260922-204204-377306-846321
RANGE A (43773)
GARAI-B (68463)
2026-09-22T
20:42:58+0000
2.366 km
极远距离
1.537226E-6 低风险 0.39
Miss Distance Evolution Trend with All Objects Subscribe to Flight Safety Assessment
Collision Probability Evolution Trend with All Objects Subscribe to Flight Safety Assessment